Time,TemperatureF,DewpointF,PressureIn,WindDirection,WindDirectionDegrees,WindSpeedMPH,WindSpeedGustMPH,Humidity,HourlyPrecipIn,Conditions,Clouds,dailyrainin,SoftwareType,DateUTC
2013-05-20 00:02:00,72.0,53.0,-100.00,SSE,155,7.0,19.0,52,0.00,,,-99.99,,2013-05-20 05:02:00,
2013-05-20 00:12:00,72.0,53.0,-100.00,SSE,155,7.0,19.0,52,0.00,,,-99.99,,2013-05-20 05:12:00,
2013-05-20 00:22:00,72.0,53.0,-100.00,SSE,155,7.0,19.0,52,0.00,,,-99.99,,2013-05-20 05:22:00,
2013-05-20 00:32:00,72.0,53.0,-100.00,SSE,155,7.0,19.0,52,0.00,,,-99.99,,2013-05-20 05:32:00,
2013-05-20 01:01:00,70.0,53.0,-100.00,SE,140,5.0,15.0,55,0.00,,,-99.99,,2013-05-20 06:01:00,
2013-05-20 03:01:00,64.0,56.0,-100.00,South,185,1.0,9.0,78,0.21,,,-99.99,,2013-05-20 08:01:00,
2013-05-20 03:11:00,64.0,56.0,-100.00,South,185,1.0,9.0,78,0.21,,,-99.99,,2013-05-20 08:11:00,
2013-05-20 03:21:00,64.0,56.0,-100.00,South,185,1.0,9.0,78,0.21,,,-99.99,,2013-05-20 08:21:00,
2013-05-20 03:32:00,64.0,56.0,-100.00,South,185,1.0,9.0,78,0.21,,,-99.99,,2013-05-20 08:32:00,
2013-05-20 03:41:00,64.0,56.0,-100.00,South,185,1.0,9.0,78,0.21,,,-99.99,,2013-05-20 08:41:00,
2013-05-20 05:03:00,62.0,56.0,-100.00,SSE,155,3.0,10.0,81,0.00,,,-99.99,,2013-05-20 10:03:00,
2013-05-20 05:12:00,62.0,56.0,-100.00,SSE,155,3.0,10.0,81,0.00,,,-99.99,,2013-05-20 10:12:00,
2013-05-20 05:22:00,62.0,56.0,-100.00,SSE,155,3.0,10.0,81,0.00,,,-99.99,,2013-05-20 10:22:00,
2013-05-20 05:32:00,62.0,56.0,-100.00,SSE,155,3.0,10.0,81,0.00,,,-99.99,,2013-05-20 10:32:00,
2013-05-20 05:42:00,62.0,56.0,-100.00,SSE,155,3.0,10.0,81,0.00,,,-99.99,,2013-05-20 10:42:00,
2013-05-20 06:02:00,62.0,55.0,-100.00,SE,145,7.0,12.0,78,0.00,,,-99.99,,2013-05-20 11:02:00,
2013-05-20 06:12:00,62.0,55.0,-100.00,SE,145,7.0,12.0,78,0.00,,,-99.99,,2013-05-20 11:12:00,
2013-05-20 06:21:00,62.0,55.0,-100.00,SE,145,7.0,12.0,78,0.00,,,-99.99,,2013-05-20 11:21:00,
2013-05-20 06:32:00,62.0,55.0,-100.00,SE,145,7.0,12.0,78,0.00,,,-99.99,,2013-05-20 11:32:00,
2013-05-20 06:41:00,62.0,55.0,-100.00,SE,145,7.0,12.0,78,0.00,,,-99.99,,2013-05-20 11:41:00,
2013-05-20 09:01:00,66.0,54.0,-100.00,SSE,160,4.0,10.0,66,0.00,,,-99.99,,2013-05-20 14:01:00,
2013-05-20 09:11:00,65.0,53.0,-100.00,SSE,155,4.0,12.0,65,0.00,,,-99.99,,2013-05-20 14:11:00,
2013-05-20 09:22:00,65.0,53.0,-100.00,SSE,155,4.0,12.0,65,0.00,,,-99.99,,2013-05-20 14:22:00,
2013-05-20 09:32:00,65.0,53.0,-100.00,SSE,155,4.0,12.0,65,0.00,,,-99.99,,2013-05-20 14:32:00,
2013-05-20 09:41:00,65.0,53.0,-100.00,SSE,155,4.0,12.0,65,0.00,,,-99.99,,2013-05-20 14:41:00,
2013-05-20 10:01:00,70.0,51.0,-100.00,North,-999,-999.0,-999.0,51,0.00,,,-99.99,,2013-05-20 15:01:00,
2013-05-20 11:13:00,72.0,49.0,-100.00,SE,135,4.0,11.0,44,0.00,,,-99.99,,2013-05-20 16:13:00,
2013-05-20 11:22:00,72.0,49.0,-100.00,SE,135,4.0,11.0,44,0.00,,,-99.99,,2013-05-20 16:22:00,
2013-05-20 11:33:00,72.0,49.0,-100.00,SE,135,4.0,11.0,44,0.00,,,-99.99,,2013-05-20 16:33:00,
2013-05-20 11:42:00,72.0,49.0,-100.00,SE,135,4.0,11.0,44,0.00,,,-99.99,,2013-05-20 16:42:00,
2013-05-20 13:12:00,76.0,44.0,-100.00,SSE,150,4.0,10.0,32,0.00,,,-99.99,,2013-05-20 18:12:00,
2013-05-20 13:23:00,76.0,44.0,-100.00,SSE,150,4.0,10.0,32,0.00,,,-99.99,,2013-05-20 18:23:00,
2013-05-20 13:32:00,76.0,44.0,-100.00,SSE,150,4.0,10.0,32,0.00,,,-99.99,,2013-05-20 18:32:00,
2013-05-20 13:42:00,76.0,44.0,-100.00,SSE,150,4.0,10.0,32,0.00,,,-99.99,,2013-05-20 18:42:00,
2013-05-20 15:01:00,82.0,40.0,-100.00,SW,225,2.0,16.0,22,0.00,,,-99.99,,2013-05-20 20:01:00,
2013-05-20 15:12:00,82.0,40.0,-100.00,SW,225,2.0,16.0,22,0.00,,,-99.99,,2013-05-20 20:12:00,
2013-05-20 15:21:00,82.0,40.0,-100.00,SW,225,2.0,16.0,22,0.00,,,-99.99,,2013-05-20 20:21:00,
2013-05-20 15:32:00,82.0,40.0,-100.00,SW,225,2.0,16.0,22,0.00,,,-99.99,,2013-05-20 20:32:00,
2013-05-20 15:42:00,82.0,40.0,-100.00,SW,225,2.0,16.0,22,0.00,,,-99.99,,2013-05-20 20:42:00,
2013-05-20 17:42:00,79.0,40.0,-100.00,South,175,2.0,8.0,25,0.00,,,-99.99,,2013-05-20 22:42:00,
2013-05-20 18:03:00,79.0,40.0,-100.00,South,175,2.0,8.0,25,0.00,,,-99.99,,2013-05-20 23:03:00,
2013-05-20 18:12:00,79.0,40.0,-100.00,South,175,2.0,8.0,25,0.00,,,-99.99,,2013-05-20 23:12:00,
2013-05-20 18:22:00,79.0,40.0,-100.00,South,175,2.0,8.0,25,0.00,,,-99.99,,2013-05-20 23:22:00,
2013-05-20 18:32:00,79.0,40.0,-100.00,South,175,2.0,8.0,25,0.00,,,-99.99,,2013-05-20 23:32:00,
2013-05-20 19:01:00,78.0,41.0,-100.00,SW,220,2.0,11.0,27,0.00,,,-99.99,,2013-05-21 00:01:00,
2013-05-20 19:11:00,78.0,41.0,-100.00,SW,220,2.0,11.0,27,0.00,,,-99.99,,2013-05-21 00:11:00,
2013-05-20 19:21:00,78.0,41.0,-100.00,SW,220,2.0,11.0,27,0.00,,,-99.99,,2013-05-21 00:21:00,
2013-05-20 19:32:00,78.0,41.0,-100.00,SW,220,2.0,11.0,27,0.00,,,-99.99,,2013-05-21 00:32:00,
2013-05-20 19:41:00,78.0,41.0,-100.00,SW,220,2.0,11.0,27,0.00,,,-99.99,,2013-05-21 00:41:00,
2013-05-20 20:11:00,74.0,42.0,-100.00,SW,235,1.0,7.0,31,0.00,,,-99.99,,2013-05-21 01:11:00,
2013-05-20 20:22:00,74.0,42.0,-100.00,SW,235,1.0,7.0,31,0.00,,,-99.99,,2013-05-21 01:22:00,
2013-05-20 20:32:00,74.0,42.0,-100.00,SW,235,1.0,7.0,31,0.00,,,-99.99,,2013-05-21 01:32:00,
2013-05-20 20:42:00,74.0,42.0,-100.00,SW,235,1.0,7.0,31,0.00,,,-99.99,,2013-05-21 01:42:00,
2013-05-20 21:11:00,67.0,48.0,-100.00,South,185,0.0,0.0,50,0.00,,,-99.99,,2013-05-21 02:11:00,
2013-05-20 21:21:00,67.0,48.0,-100.00,South,185,0.0,0.0,50,0.00,,,-99.99,,2013-05-21 02:21:00,
2013-05-20 21:32:00,67.0,48.0,-100.00,South,185,0.0,0.0,50,0.00,,,-99.99,,2013-05-21 02:32:00,
2013-05-20 21:42:00,67.0,48.0,-100.00,South,185,0.0,0.0,50,0.00,,,-99.99,,2013-05-21 02:42:00,
2013-05-20 23:02:00,62.0,52.0,-100.00,North,0,1.0,2.0,71,0.00,,,-99.99,,2013-05-21 04:02:00,
2013-05-20 23:03:00,62.0,52.0,-100.00,SE,135,1.0,2.0,70,0.00,,,-99.99,,2013-05-21 04:03:00,
2013-05-20 23:13:00,62.0,52.0,-100.00,SE,135,1.0,2.0,70,0.00,,,-99.99,,2013-05-21 04:13:00,
2013-05-20 23:23:00,62.0,52.0,-100.00,SE,135,1.0,2.0,70,0.00,,,-99.99,,2013-05-21 04:23:00,
2013-05-20 23:33:00,62.0,52.0,-100.00,SE,135,1.0,2.0,70,0.00,,,-99.99,,2013-05-21 04:33:00,
2013-05-20 23:42:00,62.0,52.0,-100.00,SE,135,1.0,2.0,70,0.00,,,-99.99,,2013-05-21 04:42:00,